EW0493 Weather Reports


Display with metric or nautical units.
time (UTC)temp
F
wind
direction
speed
MPH
gust
MPH
rain 1hr
in
rain 24hr
in
rain mn
in
humidity
%
barometer
mb
20230201024601 22 252 0.0 0.0 0.00 0.01 0.00 77 1023.2
20230201023051 21 252 0.0 0.0 0.00 0.01 0.00 78 1023.0
20230201021553 21 255 0.0 0.0 0.00 0.01 0.00 79 1023.1
20230201020143 20 255 0.0 0.0 0.00 0.01 0.00 79 1023.0
20230201014556 20 255 0.0 0.0 0.00 0.01 0.00 81 1022.9
20230201013149 20 255 0.0 0.0 0.00 0.01 0.00 82 1023.1
20230201011548 20 255 0.0 0.0 0.00 0.01 0.00 78 1023.0
20230201010022 20 255 0.0 0.0 0.00 0.01 0.00 78 1023.4
20230201004611 21 255 0.0 0.0 0.00 0.01 0.00 77 1023.4
20230201003016 21 64 0.0 0.0 0.00 0.01 0.00 75 1023.1
20230201001556 21 65 0.0 0.0 0.00 0.01 0.00 75 1022.7
20230201000142 21 65 0.0 0.0 0.00 0.01 0.00 76 1022.6
20230131234555 21 108 0.0 0.0 0.00 0.01 0.00 77 1022.7
20230131233004 22 108 0.0 0.0 0.00 0.01 0.00 75 1022.8
20230131231551 22 108 0.0 0.0 0.00 0.01 0.00 76 1022.6
20230131230019 23 109 0.0 0.0 0.00 0.01 0.00 74 1022.6
20230131224611 23 109 0.0 0.0 0.00 0.01 0.00 74 1022.6
20230131223024 24 108 0.0 0.0 0.00 0.01 0.00 73 1022.5
20230131221613 24 110 0.0 0.0 0.00 0.01 0.00 72 1022.6
20230131220051 25 70 0.0 0.0 0.00 0.01 0.00 73 1022.6
20230131214507 25 70 0.0 0.0 0.00 0.01 0.00 72 1022.5
20230131213101 26 120 0.0 0.0 0.00 0.01 0.00 74 1022.2
20230131211546 26 179 0.0 0.0 0.00 0.01 0.00 76 1022.0
20230131210016 26 180 0.0 0.0 0.00 0.01 0.00 77 1022.2
20230131204651 27 181 0.0 0.0 0.00 0.01 0.00 78 1022.3
20230131203156 27 181 0.0 4.0 0.00 0.01 0.00 79 1022.2
20230131201555 27 179 0.0 6.0 0.00 0.01 0.00 79 1022.0
20230131200151 27 179 0.0 2.0 0.00 0.01 0.00 81 1021.9
20230131194605 26 179 0.0 0.0 0.00 0.01 0.00 82 1021.9
20230131193153 26 179 0.0 0.0 0.00 0.01 0.00 83 1021.9
20230131191548 26 180 0.0 2.0 0.00 0.01 0.00 82 1022.0
20230131190032 26 179 0.0 0.0 0.00 0.01 0.00 84 1022.3
20230131184632 26 179 0.0 4.0 0.00 0.01 0.00 83 1022.8
20230131183154 27 179 0.0 1.0 0.00 0.01 0.00 84 1022.5
20230131181550 26 179 0.0 0.0 0.00 0.01 0.00 83 1022.7
20230131180146 26 181 0.0 2.0 0.00 0.01 0.00 84 1022.8
20230131174545 26 180 0.0 1.0 0.00 0.01 0.00 83 1022.7
20230131173010 27 179 0.0 3.0 0.00 0.01 0.00 84 1023.2
20230131171555 26 181 0.0 0.0 0.00 0.01 0.00 86 1023.4
20230131170019 26 180 0.0 0.0 0.00 0.01 0.00 86 1023.4
20230131164608 25 178 0.0 0.0 0.00 0.01 0.00 87 1023.8
20230131163016 25 179 0.0 1.0 0.00 0.01 0.00 88 1023.5
20230131161613 25 94 0.0 0.0 0.00 0.01 0.00 88 1023.6
20230131160011 25 115 0.0 2.0 0.00 0.01 0.00 89 1023.9
20230131154602 25 73 0.0 0.0 0.00 0.01 0.00 90 1023.7
20230131153144 25 13 0.0 0.0 0.00 0.01 0.00 90 1023.8
20230131151622 26 41 0.0 1.0 0.00 0.01 0.00 90 1023.5
20230131150145 27 355 0.0 1.0 0.00 0.01 0.00 90 1023.2
20230131144546 28 177 0.0 1.0 0.00 0.01 0.00 92 1022.8
20230131143135 28 106 0.0 0.0 0.00 0.01 0.00 92 1022.9
20230131141537 28 177 0.0 2.0 0.00 0.01 0.00 92 1022.8
20230131140020 28 281 0.0 3.0 0.00 0.01 0.00 93 1022.7
20230131134604 28 236 0.0 2.0 0.00 0.01 0.00 93 1022.7
20230131133011 27 257 0.0 1.0 0.00 0.01 0.00 93 1022.5
20230131131606 27 266 0.0 1.0 0.00 0.01 0.00 93 1022.4
20230131130008 27 294 0.0 0.0 0.00 0.01 0.00 93 1021.9
20230131124554 27 276 0.0 0.0 0.00 0.01 0.00 93 1022.2
20230131123005 27 238 0.0 1.0 0.00 0.01 0.00 94 1022.0
20230131121545 27 220 0.0 0.0 0.00 0.01 0.00 94 1021.7
20230131120024 27 259 0.0 0.0 0.00 0.01 0.00 94 1021.3
20230131114554 27 181 0.0 0.0 0.00 0.01 0.00 94 1020.7
20230131113012 27 70 0.0 1.0 0.00 0.01 0.00 95 1020.7
20230131111613 27 297 0.0 1.0 0.00 0.01 0.00 95 1020.8
20230131110002 27 177 0.0 0.0 0.00 0.01 0.00 95 1020.3
20230131104550 27 177 0.0 0.0 0.00 0.01 0.00 95 1020.4
20230131103139 27 177 0.0 0.0 0.00 0.01 0.00 95 1020.1
20230131101557 27 177 0.0 0.0 0.00 0.01 0.00 95 1020.0
20230131100146 27 177 0.0 0.0 0.00 0.01 0.00 95 1020.1
20230131094549 27 177 0.0 1.0 0.00 0.01 0.00 95 1020.1
20230131093002 27 177 0.0 0.0 0.00 0.01 0.00 95 1020.0
20230131091544 27 177 0.0 0.0 0.00 0.01 0.00 95 1019.9
20230131090005 28 177 0.0 1.0 0.00 0.01 0.00 95 1019.7
20230131084548 28 287 0.0 0.0 0.00 0.01 0.00 94 1019.6
20230131083008 28 308 0.0 1.0 0.00 0.01 0.00 94 1019.3
20230131081552 28 274 0.0 0.0 0.00 0.01 0.00 95 1019.2
20230131080005 28 291 0.0 0.0 0.00 0.01 0.00 95 1019.1
20230131074555 29 354 0.0 1.0 0.00 0.01 0.00 96 1019.3
20230131073054 29 24 0.0 0.0 0.00 0.01 0.00 96 1018.9
20230131071635 29 249 0.0 0.0 0.00 0.01 0.00 96 1019.2
20230131070054 29 68 0.0 0.0 0.00 0.01 0.00 96 1018.9
20230131064638 30 112 0.0 0.0 0.00 0.01 0.00 96 1018.7
20230131063155 30 39 0.0 0.0 0.00 0.01 0.00 97 1018.8
20230131061558 31 288 0.0 1.0 0.00 0.01 0.00 97 1019.0
20230131060016 31 311 0.0 1.0 0.00 0.01 0.00 97 1018.7
20230131054556 32 65 0.0 0.0 0.00 0.01 0.00 97 1018.5
20230131053041 33 257 0.0 0.0 0.00 0.01 0.00 97 1018.5
20230131051620 34 345 0.0 0.0 0.00 0.01 0.00 97 1018.5
20230131050004 34 51 0.0 0.0 0.00 0.01 0.00 97 1018.1
20230131044608 35 58 0.0 0.0 0.00 0.01 0.01 97 1017.2
20230131043030 37 280 0.0 0.0 0.00 0.01 0.01 97 1018.1
20230131041633 37 281 0.0 0.0 0.00 0.01 0.01 97 1018.1
20230131040048 38 290 0.0 0.0 0.00 0.01 0.01 97 1018.6
20230131034559 39 273 0.0 0.0 0.00 0.01 0.01 97 1018.5
20230131033012 40 269 0.0 1.0 0.00 0.01 0.01 97 1018.5
20230131031617 40 276 0.0 4.0 0.00 0.01 0.01 97 1018.4
20230131030150 41 270 0.0 1.0 0.01 0.01 0.01 97 1018.5